Weather History for Mason, MI

Change the Weather History Date:

Monday, April 8, 2013

  Actual Average (KLAN) Record (KLAN)
Temperature  
Mean Temperature 48 °F 45 °F  
Max Temperature 63 °F 55 °F 80 °F (1875)
Min Temperature 34 °F 35 °F 2 °F (1868)
Degree Days  
Heating Degree Days 16 21  
Month to date heating degree days 176  
Since 1 July heating degree days 6040  
Cooling Degree Days 0 0  
Month to date cooling degree days 0  
Year to date cooling degree days 1  
Moisture  
Dew Point 39 °F    
Average Humidity 80    
Maximum Humidity 91    
Minimum Humidity 53    
Precipitation  
Precipitation 0.00 in 0.10 in 0.91 in (1938)
Month to date precipitation 0.77  
Year to date precipitation 5.95  
Snow  
Snow 0.00 in 0.10 in 5.10 in (1938)
Month to date snowfall 0.9  
Since 1 July snowfall 50.1  
Snow Depth -    
Sea Level Pressure  
Sea Level Pressure 29.87 in    
Wind  
Wind Speed 9 mph (SSE)    
Max Wind Speed 23 mph    
Max Gust Speed 34 mph    
Visibility 8 miles    
Events Rain    
T = Trace of Precipitation, MM = Missing Value Source: NWS Daily Summary

Daily Weather History Graph

Daily Weather History Graph

Search for Another Location

Airport:

Trip Planner

Search our weather history database for the weather conditions in past years. The results will help you decide how hot, cold, wet, or windy it might be!

Date:

Astronomy

Apr. 08, 2013 Rise Set
Actual Time 7:07 AM EDT 8:11 PM EDT
Civil Twilight 6:38 AM EDT 8:40 PM EDT
Nautical Twilight 6:04 AM EDT 9:15 PM EDT
Astronomical Twilight 5:28 AM EDT 9:51 PM EDT
Moon 5:59 AM EDT (4/8) 6:44 PM EDT (4/8)
Length of Visible Light 14h 02m
Length of Day
13h 04m
Waning Crescent, 3% of the Moon is Illuminated
Apr 8
Waning Crescent
Apr 10
New
Apr 18
First Quarter
Apr 25
Full
May 2
Last Quarter

Hourly Weather History & Observations

Time (EDT) Temp. Windchill Dew Point Humidity Pressure Visibility Wind Dir Wind Speed Gust Speed Precip Events Conditions
12:17 AM 35.6 °F 32.8 °F 30.7 °F 82% 30.02 in 10.0 mi ENE 3.5 mph - N/A   Clear
12:36 AM 36.0 °F 33.3 °F 31.3 °F 83% 30.02 in 10.0 mi ENE 3.5 mph - N/A   Clear
12:56 AM 34.3 °F 30.2 °F 30.0 °F 84% 30.02 in 10.0 mi NE 4.6 mph - N/A   Clear
1:15 AM 35.4 °F 32.6 °F 30.6 °F 82% 30.02 in 10.0 mi East 3.5 mph - N/A   Clear
1:36 AM 35.8 °F 33.0 °F 30.9 °F 82% 30.02 in 10.0 mi East 3.5 mph - N/A   Clear
1:56 AM 35.6 °F 31.7 °F 30.9 °F 83% 30.01 in 10.0 mi ESE 4.6 mph - N/A   Clear
2:16 AM 36.0 °F 31.1 °F 30.9 °F 82% 30.01 in 10.0 mi ESE 5.8 mph - N/A   Clear
2:36 AM 36.0 °F 32.1 °F 30.9 °F 82% 30.01 in 10.0 mi ESE 4.6 mph - N/A   Clear
2:56 AM 35.8 °F 31.9 °F 30.9 °F 82% 30.01 in 10.0 mi ESE 4.6 mph - N/A   Clear
3:15 AM 36.0 °F 30.3 °F 30.9 °F 82% 30.01 in 10.0 mi SE 6.9 mph - N/A   Clear
3:36 AM 36.1 °F 29.9 °F 31.1 °F 82% 30.00 in 10.0 mi ESE 8.1 mph - N/A   Clear
3:56 AM 36.5 °F 31.0 °F 31.1 °F 81% 29.99 in 10.0 mi ESE 6.9 mph - N/A   Clear
4:15 AM 36.5 °F 30.3 °F 31.3 °F 81% 29.99 in 10.0 mi SE 8.1 mph - N/A   Clear
4:36 AM 36.7 °F 29.9 °F 31.3 °F 81% 29.98 in 10.0 mi SE 9.2 mph - N/A   Clear
4:56 AM 36.7 °F 30.5 °F 31.5 °F 81% 29.98 in 10.0 mi SE 8.1 mph - N/A   Clear
5:15 AM 36.9 °F 29.6 °F 31.6 °F 81% 29.98 in 10.0 mi SE 10.4 mph - N/A   Clear
5:36 AM 37.4 °F 30.8 °F 32.0 °F 81% 29.96 in 10.0 mi SE 9.2 mph - N/A   Clear
5:56 AM 37.4 °F 30.8 °F 32.0 °F 81% 29.96 in 10.0 mi SE 9.2 mph - N/A   Clear
6:16 AM 37.6 °F 32.3 °F 32.0 °F 80% 29.95 in 10.0 mi ESE 6.9 mph - N/A   Clear
6:36 AM 37.6 °F 31.6 °F 32.0 °F 80% 29.95 in 10.0 mi SE 8.1 mph - N/A   Clear
6:56 AM 37.9 °F 32.1 °F 32.0 °F 79% 29.94 in 10.0 mi ESE 8.1 mph 16.1 mph N/A   Clear
7:16 AM 38.3 °F 31.9 °F 32.2 °F 79% 29.94 in 10.0 mi SE 9.2 mph - N/A   Clear
7:36 AM 38.7 °F 32.4 °F 32.4 °F 78% 29.93 in 10.0 mi ESE 9.2 mph - N/A   Clear
7:56 AM 39.2 °F 32.5 °F 32.5 °F 77% 29.92 in 10.0 mi ESE 10.4 mph - N/A   Clear
8:16 AM 39.6 °F 33.5 °F 32.9 °F 77% 29.92 in 10.0 mi SE 9.2 mph - N/A   Clear
8:36 AM 40.3 °F 33.9 °F 33.3 °F 76% 29.92 in 10.0 mi SE 10.4 mph 16.1 mph N/A   Clear
8:56 AM 41.4 °F 34.7 °F 34.0 °F 75% 29.92 in 10.0 mi SE 11.5 mph 18.4 mph N/A   Clear
9:16 AM 42.8 °F 37.5 °F 34.7 °F 73% 29.91 in 10.0 mi SE 9.2 mph - N/A   Clear
9:36 AM 43.9 °F 38.3 °F 34.9 °F 71% 29.89 in 10.0 mi ESE 10.4 mph 16.1 mph N/A   Scattered Clouds
9:56 AM 45.5 °F 38.6 °F 35.1 °F 67% 29.88 in 10.0 mi SE 16.1 mph 19.6 mph N/A   Scattered Clouds
10:16 AM 46.6 °F - 35.6 °F 66% 29.86 in 10.0 mi SE 15.0 mph 19.6 mph N/A   Mostly Cloudy
10:36 AM 45.9 °F 39.4 °F 36.7 °F 70% 29.86 in 10.0 mi SSE 15.0 mph 20.7 mph N/A Rain Light Rain
10:56 AM 44.1 °F 37.7 °F 38.3 °F 80% 29.85 in 4.0 mi SE 12.7 mph 20.7 mph N/A Rain Rain
11:16 AM 43.7 °F 36.9 °F 39.2 °F 84% 29.84 in 4.0 mi SE 13.8 mph 20.7 mph N/A Rain Rain
11:36 AM 43.7 °F 37.3 °F 39.9 °F 87% 29.82 in 5.0 mi SE 12.7 mph 17.3 mph N/A Rain Rain
11:56 AM 44.1 °F 37.7 °F 40.6 °F 88% 29.79 in 4.0 mi ESE 12.7 mph 20.7 mph N/A Rain Light Rain
12:16 PM 45.5 °F 40.3 °F 41.9 °F 87% 29.79 in 5.0 mi SE 10.4 mph 18.4 mph N/A Rain Light Rain
12:36 PM 45.5 °F 40.3 °F 42.3 °F 88% 29.79 in 3.0 mi SE 10.4 mph 16.1 mph N/A Rain Rain
12:56 PM 45.9 °F 40.8 °F 43.0 °F 90% 29.79 in 3.0 mi SE 10.4 mph - N/A Rain Rain
1:16 PM 46.4 °F 41.1 °F 43.7 °F 90% 29.76 in 3.0 mi SE 11.5 mph - N/A Rain Light Rain
1:36 PM 47.5 °F - 45.0 °F 91% 29.75 in 4.0 mi SE 12.7 mph 19.6 mph N/A   Overcast
1:56 PM 48.0 °F - 45.0 °F 89% 29.74 in 4.0 mi SE 13.8 mph 19.6 mph N/A   Overcast
2:16 PM 47.8 °F - 45.0 °F 90% 29.72 in 4.0 mi SE 12.7 mph 18.4 mph N/A   Overcast
2:36 PM 48.6 °F - 45.7 °F 90% 29.71 in 4.0 mi SSE 11.5 mph 17.3 mph N/A Rain Light Rain
2:56 PM 50.9 °F - 47.7 °F 89% 29.70 in 4.0 mi SSE 10.4 mph 19.6 mph N/A   Overcast
3:16 PM 50.9 °F - 47.5 °F 88% 29.69 in 3.0 mi SSE 8.1 mph - N/A Rain Rain
3:37 PM 51.6 °F - 48.6 °F 89% 29.69 in 4.0 mi SW 3.5 mph - N/A Rain Rain
3:56 PM 53.6 °F - 49.6 °F 86% 29.68 in 5.0 mi South 6.9 mph 17.3 mph N/A   Overcast
4:16 PM 54.1 °F - 50.7 °F 88% 29.69 in 5.0 mi West 4.6 mph - N/A   Overcast
4:37 PM 58.3 °F - 52.9 °F 82% 29.69 in 10.0 mi SW 8.1 mph 16.1 mph N/A   Overcast
4:56 PM 62.8 °F - 50.2 °F 63% 29.68 in 10.0 mi WSW 17.3 mph 29.9 mph N/A   Overcast
5:16 PM 63.1 °F - 47.7 °F 57% 29.69 in 10.0 mi WSW 19.6 mph 32.2 mph N/A   Overcast
5:36 PM 63.5 °F - 46.8 °F 54% 29.70 in 10.0 mi WSW 15.0 mph 34.5 mph N/A   Mostly Cloudy
5:56 PM 63.3 °F - 46.0 °F 53% 29.71 in 10.0 mi WSW 18.4 mph 33.4 mph N/A   Scattered Clouds
6:16 PM 61.5 °F - 45.0 °F 55% 29.72 in 10.0 mi WSW 19.6 mph 29.9 mph N/A   Scattered Clouds
6:37 PM 59.7 °F - 45.0 °F 58% 29.74 in 10.0 mi West 17.3 mph 29.9 mph N/A   Scattered Clouds
6:56 PM 55.4 °F - 45.0 °F 68% 29.78 in 10.0 mi West 23.0 mph 34.5 mph N/A   Mostly Cloudy
7:16 PM 51.4 °F - 43.0 °F 73% 29.80 in 10.0 mi West 18.4 mph 28.8 mph N/A   Overcast
7:36 PM 49.3 °F - 42.3 °F 77% 29.82 in 10.0 mi West 16.1 mph 32.2 mph N/A   Overcast
7:56 PM 48.2 °F - 42.1 °F 79% 29.84 in 10.0 mi West 11.5 mph 27.6 mph N/A   Overcast
8:16 PM 47.5 °F - 41.9 °F 81% 29.85 in 10.0 mi West 13.8 mph 23.0 mph N/A   Overcast
8:36 PM 47.3 °F - 42.1 °F 82% 29.86 in 10.0 mi West 10.4 mph 18.4 mph N/A   Overcast
8:56 PM 47.3 °F - 42.1 °F 82% 29.88 in 10.0 mi West 12.7 mph 16.1 mph N/A   Overcast
9:16 PM 47.1 °F - 41.9 °F 82% 29.90 in 10.0 mi West 12.7 mph 18.4 mph N/A   Overcast
9:36 PM 46.8 °F - 42.1 °F 84% 29.91 in 10.0 mi West 15.0 mph 19.6 mph N/A   Overcast
9:56 PM 46.2 °F 40.5 °F 41.9 °F 85% 29.93 in 10.0 mi West 12.7 mph 19.6 mph N/A   Overcast
10:17 PM 45.5 °F 39.9 °F 41.7 °F 87% 29.94 in 7.0 mi West 11.5 mph 19.6 mph N/A   Overcast
10:36 PM 45.0 °F 39.3 °F 41.4 °F 87% 29.95 in 7.0 mi West 11.5 mph - N/A   Overcast
10:56 PM 44.8 °F 39.9 °F 41.4 °F 88% 29.96 in 7.0 mi West 9.2 mph - N/A   Overcast
11:17 PM 45.0 °F 40.1 °F 41.4 °F 87% 29.97 in 7.0 mi West 9.2 mph - N/A   Overcast
11:36 PM 44.8 °F 39.9 °F 41.0 °F 87% 29.97 in 7.0 mi WNW 9.2 mph - N/A   Overcast
11:56 PM 44.6 °F 42.2 °F 41.0 °F 87% 29.98 in 7.0 mi WNW 4.6 mph - N/A   Overcast